Weather in Resende

Brazil     22°27′49″S   44°26′32″W
temp.,
°C
wind,
m/s
gust,
m/s
humid.,
%
clouds,
%
prec.,
mm/h
press.,
hPa
HPBL,
m
21 april, wed
wed2100:00+14w36951 0.0 1017153
03:00+14w37931 0.0 1016210
06:00+14w48911 0.0 1016264
09:00+19wsw46680 0.0 1017638
12:00+23wsw455911 0.1 10151216
15:00+23sw34643 0.4 10131250
18:00+16wsw22931 1.9 101529
21:00+15w11950 2.4 101715
22 april, thu
thu2200:00+14w229676 0.0 101740
03:00+15w239480 0.1 101679
06:00+14w229540 0.0 101748
09:00+19wsw238123 0.1 1018589
12:00+22ssw236642 0.8 10161156
15:00+20sse128244 3.4 1015677
18:00+16n019411 2.5 101611
21:00+15wnw119672 2.9 101812
23 april, fri
fri2300:00+15w119644 0.0 101837
03:00+13w22972 0.0 101731
06:00+12w229615 0.0 101829
09:00+17wsw23812 0.0 1018455
12:00+22sse126111 0.0 1016897
15:00+23ese216224 0.0 1013840
18:00+17ene259355 0.2 1015117
21:00+15ne139751 0.3 1017159
24 april, sat
sat2400:00+15ene119783 0.0 1017101
03:00+15wsw009766 0.0 101567
06:00+14wsw119424 0.0 101620
09:00+19se11771 0.0 1016467
12:00+23ese22631 0.0 1014799
15:00+25e22570 0.0 1011632
18:00+19ene01850 0.0 101212
21:00+16nne119660 0.0 101521
25 april, sun
sun2500:00+16ne119899 0.0 101478
03:00+16nnw009699 0.0 101434
06:00+15w119062 0.0 101412
09:00+20ese117383 0.0 1014335
12:00+25ese2259100 0.0 1012674
15:00+26ese32550 0.0 1010703
18:00+20nw1181100 0.1 101115
21:00+18n0187100 0.1 101313